Regional Weather Roundup
Issued by NWS

Home | Current Version | Previous Version | Text Only | Print | Product List | Glossary Off
Versions: 1 2 3 4 5 6 7 8 9 10 11 12 13 14 15 16 17 18 19 20 21 22 23 24 25 26 27 28 29 30 31 32 33 34 35 36 37 38 39 40 41 42 43 44 45 46 47 48 49 50

000
ASUS43 KIND 011659
RWRIN

WEATHER ROUNDUP FOR INDIANA
NATIONAL WEATHER SERVICE INDIANAPOLIS IN
100 PM EDT SUN MAY 01 2016

NOTE: "FAIR" INDICATES FEW OR NO CLOUDS BELOW 12,000 FEET WITH NO
SIGNIFICANT WEATHER AND/OR OBSTRUCTIONS TO VISIBILITY.

* - STATION DOES NOT REPORT WEATHER SUCH AS PRECIPITATION OR FOG.

+ - STATION NOT QUALITY CONTROLLED BY THE NATIONAL WEATHER SERVICE.
    USE DATA WITH CAUTION...ESPECIALLY DEWPOINT AND RELATIVE
    HUMIDITY OBSERVATIONS.

INZ001>003-010>013-019-020-011800-
NORTHWEST INDIANA

CITY           SKY/WX    TMP DP  RH WIND       PRES   REMARKS
GARY /AIRPORT/ CLOUDY    48  48 100 NE12      29.99  FOG
RENSSELAER +   CLOUDY    54  52  94 N8        29.97S
VALPARAISO     CLOUDY    57  51  80 N8        29.97F

$$

LMZ046-743>745-011800-
SOUTHERN LAKE MICHIGAN

STATION/POSITION TIME  TEMP    WIND        PRES    WAVE
                       AIR SEA DIR/SP/G            HT
                 (UTC) (F)     (DEG/KT/KT) (MB)    (FT)
BURNS HARBOR     1614   45      40/  9/ 15 1016.3R
MICHIGAN CITY    1600   45      10/ 10/ 11   N/A

$$

INZ004-005-014>016-021>024-011800-
NORTH CENTRAL INDIANA

CITY           SKY/WX    TMP DP  RH WIND       PRES   REMARKS
ELKHART        CLOUDY    54  54 100 MISG      29.98R
GOSHEN         CLOUDY    53  50  89 N8        29.96S FOG
SOUTH BEND     CLOUDY    54  50  86 VRB3      29.99R

$$

INZ006>009-017-018-025>027-011800-
NORTHEAST INDIANA

CITY           SKY/WX    TMP DP  RH WIND       PRES   REMARKS
ANGOLA *+      CLOUDY    52  45  76 N5        29.96S
FORT WAYNE     CLOUDY    57  54  89 VRB3      29.96F

$$

INZ028-029-035-036-043>045-051>053-011800-
WEST CENTRAL INDIANA

CITY           SKY/WX    TMP DP  RH WIND       PRES   REMARKS
CRAWFORDSVL +  PTSUNNY   64  58  80 CALM      29.94F
GREENCASTLE +  PTSUNNY   70  61  73 CALM      29.94S
LAFAYETTE      CLOUDY    59  55  87 NE3       29.95R
TERRE HAUTE    CLOUDY    69  57  65 N7        29.94R

$$

INZ030>032-037>040-046>048-054>057-064-065-011800-
CENTRAL INDIANA

CITY           SKY/WX    TMP DP  RH WIND       PRES   REMARKS
CP ATTERBURY + PTSUNNY   73  57  56 CALM      29.93F
COLUMBUS       SUNNY     72  61  68 CALM      29.94S
INDIANAPOLIS   MOSUNNY   71  56  58 CALM      29.92S
-EAGLE CREEK   PTSUNNY   70  55  59 CALM      29.93S
KOKOMO *+      CLOUDY    64  57  77 S5        29.94S
SHELBYVILLE    MOSUNNY   73  58  59 W7        29.93F

$$

INZ033-034-041-042-049-050-058-059-011800-
EAST CENTRAL INDIANA

CITY           SKY/WX    TMP DP  RH WIND       PRES   REMARKS
MUNCIE         PTSUNNY   70  55  59 W6        29.93F

$$

INZ060-061-067>069-081>083-085>088-011800-
SOUTHWEST INDIANA

CITY           SKY/WX    TMP DP  RH WIND       PRES   REMARKS
EVANSVILLE     PTSUNNY   74  62  66 S12       29.93R
HUNTINGBURG *+ SUNNY     75  63  64 SW6       29.93S

$$

INZ062-063-066-070>080-084-089>092-011800-
SOUTH CENTRAL AND SOUTHEAST INDIANA

CITY           SKY/WX    TMP DP  RH WIND       PRES   REMARKS
BLOOMINGTON    SUNNY     74  54  49 N6        29.93S
MADISON *+     PTSUNNY   73  59  60 S5        29.96S
SEYMOUR +      MOSUNNY   73  63  68 CALM      29.94S

$$





USA.gov is the U.S. government's official web portal to all federal, state and local government web resources and services.